Montrose, CO

2:26 AM MDT on March 28, 2017 (GMT -0600)
Montrose Regional

Weather History for KMTJ - March, 2014

Change the Weather History Date:

Saturday, March 8, 2014

  Actual Average Record
Temperature  
Mean Temperature 41 °F 39 °F  
Max Temperature 51 °F 52 °F 62 °F (2004)
Min Temperature 30 °F 26 °F 10 °F (1998)
Degree Days  
Heating Degree Days 24 26  
Month to date heating degree days 176 217  
Since 1 July heating degree days 4908 4932  
Cooling Degree Days 0 0  
Month to date cooling degree days 0 0  
Year to date cooling degree days 0 0  
Moisture  
Dew Point 28 °F    
Average Humidity 64    
Maximum Humidity 92    
Minimum Humidity 36    
Precipitation  
Precipitation 0.00 in 0.03 in 0.38 in (2002)
Month to date precipitation 0.57 0.27  
Year to date precipitation 1.62 1.50  
Sea Level Pressure  
Sea Level Pressure 30.28 in    
Wind  
Wind Speed 4 mph (SSE)    
Max Wind Speed 10 mph    
Max Gust Speed 12 mph    
Visibility 10 miles    
Events      
T = Trace of Precipitation, MM = Missing Value Source: NWS Daily Summary

Daily Weather History Graph

Daily Weather History Graph

Search for Another Location

Airport or City:

Trip Planner

Search our weather history database for the weather conditions in past years. The results will help you decide how hot, cold, wet, or windy it might be!

Date:

Astronomy

Mar. 08, 2014 Rise Set
Actual Time 6:33 AM MST 6:11 PM MST
Civil Twilight 6:06 AM MST 6:38 PM MST
Nautical Twilight 5:36 AM MST 7:09 PM MST
Astronomical Twilight 5:05 AM MST 7:39 PM MST
Moon 11:21 AM MST (3/8) 1:07 AM MST (3/8)
Length of Visible Light 12h 31m
Length of Day
11h 38m
First Quarter, 52% of the Moon is Illuminated
Mar 8
First Quarter
Mar 16
Full
Mar 23
Last Quarter
Mar 30
New
Apr 7
First Quarter

Hourly Weather History & Observations

Time (MST) Temp. Windchill Dew Point Humidity Pressure Visibility Wind Dir Wind Speed Gust Speed Precip Events Conditions
12:53 AM 32.0 °F 25.6 °F 28.0 °F 85% 30.13 in 10.0 mi SE 6.9 mph - N/A   Scattered Clouds
1:53 AM 32.0 °F 28.7 °F 27.0 °F 82% 30.14 in 10.0 mi SSE 3.5 mph - N/A   Mostly Cloudy
2:53 AM 32.0 °F - 28.9 °F 88% 30.14 in 10.0 mi Calm Calm - N/A   Overcast
3:53 AM 32.0 °F - 28.9 °F 88% 30.16 in 10.0 mi Calm Calm - N/A   Overcast
4:53 AM 34.0 °F - 28.0 °F 79% 30.17 in 10.0 mi Calm Calm - N/A   Overcast
5:53 AM 30.9 °F 27.5 °F 28.0 °F 89% 30.22 in 10.0 mi SSE 3.5 mph - N/A   Clear
6:53 AM 30.0 °F 25.2 °F 28.0 °F 92% 30.25 in 10.0 mi SE 4.6 mph - N/A   Clear
7:53 AM 33.1 °F 27.7 °F 28.9 °F 85% 30.28 in 10.0 mi SSE 5.8 mph - N/A   Clear
8:53 AM 37.0 °F 34.5 °F 28.9 °F 73% 30.30 in 10.0 mi SSE 3.5 mph - N/A   Clear
9:53 AM 39.0 °F - 28.0 °F 65% 30.32 in 10.0 mi Calm Calm - N/A   Partly Cloudy
10:53 AM 43.0 °F 41.3 °F 30.0 °F 60% 30.32 in 10.0 mi Variable 3.5 mph - N/A   Clear
11:53 AM 44.1 °F - 30.0 °F 58% 30.32 in 10.0 mi Calm Calm - N/A   Partly Cloudy
12:53 PM 46.0 °F - 26.1 °F 46% 30.28 in 10.0 mi Calm Calm - N/A   Clear
1:53 PM 48.0 °F - 27.0 °F 44% 30.26 in 10.0 mi North 5.8 mph - N/A   Clear
2:53 PM 48.9 °F - 26.1 °F 41% 30.26 in 10.0 mi NE 5.8 mph - N/A   Clear
3:53 PM 50.0 °F - 25.0 °F 38% 30.26 in 10.0 mi West 5.8 mph - N/A   Clear
4:53 PM 50.0 °F - 24.1 °F 36% 30.26 in 10.0 mi West 5.8 mph - N/A   Clear
5:53 PM 48.9 °F - 23.0 °F 36% 30.28 in 10.0 mi Calm Calm - N/A   Clear
6:53 PM 45.0 °F - 28.9 °F 53% 30.32 in 10.0 mi Calm Calm - N/A   Clear
7:53 PM 41.0 °F 35.8 °F 30.0 °F 65% 30.36 in 10.0 mi SSE 8.1 mph - N/A   Clear
8:53 PM 37.9 °F 31.5 °F 28.0 °F 68% 30.38 in 10.0 mi SSE 9.2 mph - N/A   Clear
9:53 PM 37.0 °F 30.4 °F 28.0 °F 70% 30.40 in 10.0 mi SSE 9.2 mph - N/A   Clear
10:53 PM 35.1 °F 27.4 °F 28.0 °F 76% 30.40 in 10.0 mi SE 10.4 mph - N/A   Clear
11:53 PM 35.1 °F 28.6 °F 27.0 °F 72% 30.40 in 10.0 mi SE 8.1 mph - N/A   Clear